Location: Dappach
(48.9767°N, 9.6998°E)
Time: 19:54:40
(UTC+00:00)

COSMOS 2428 - Pass Details

Date: 16 August 2024
Orbit: 842 x 857 km, 70.9° (Epoch: 09 September)

Event Time Altitude Azimuth Distance (km) Brightness Sun altitude
Exits shadow 00:58:47 52° 246° (WSW) 1,044 2.8 -24.1°
Maximum altitude 00:59:59 67° 302° (WNW) 924 2.8 -24.0°
Drops below altitude 10° 01:05:41 10° 25° (NNE) 2,492 6.2 -23.6°
Sets 01:08:11 0° 28° (NNE) 3,434 7.3 -23.4°
